Location: Bjelajci
(45.0103°N, 16.1758°E)
Time: 19:53:03
(UTC+00:00)

Cosmos 1697 Rocket - Pass Details

Date: 14 July 2020
Orbit: 834 x 842 km, 71.0° (Epoch: 06 August)

Event Time Altitude Azimuth Distance (km) Brightness Sun altitude
Rises 02:10:01 0° 323° (NW) 3,395 6.0 -10.7°
Reaches altitude 10° 02:12:50 10° 311° (NW) 2,454 5.1 -10.4°
Maximum altitude 02:17:21 26° 258° (WSW) 1,605 3.7 -9.8°
Drops below altitude 10° 02:21:51 10° 204° (SSW) 2,437 4.5 -9.2°
Enters shadow 02:22:18 - 201° (SSW) 2,577 4.7 -9.2°
